Regional Weather Roundup
Issued by NWS

Home | Current Version | Previous Version | Text Only | Print | Product List | Glossary Off
Versions: 1 2 3 4 5 6 7 8 9 10 11 12 13 14 15 16 17 18 19 20 21 22 23 24 25 26 27 28 29 30 31 32 33 34 35 36 37 38 39 40 41 42 43 44 45 46 47 48 49 50

000
ASUS43 KBIS 240210
RWRND

NORTH DAKOTA REGIONAL WEATHER ROUNDUP
NATIONAL WEATHER SERVICE BISMARCK ND
900 PM CDT THU OCT 23 2014

NOTE: "FAIR" INDICATES FEW OR NO CLOUDS BELOW 12,000 FEET WITH NO
SIGNIFICANT WEATHER AND/OR OBSTRUCTIONS TO VISIBILITY.


NDZ001>003-009>011-017-240300-
NORTHWEST NORTH DAKOTA

CITY           SKY/WX    TMP DP  RH WIND       PRES   REMARKS
WILLISTON      MOCLDY    54  35  48 S8        29.78S
MINOT          MOCLDY    54  32  43 SW9       29.75R
MINOT AFB      MOCLDY    51  35  54 W10       29.75R
$$

NDZ018>021-031>035-040>046-240300-
SOUTHWEST NORTH DAKOTA

CITY           SKY/WX    TMP DP  RH WIND       PRES   REMARKS
BISMARCK       MOCLDY    56  31  38 W3        29.82R
DICKINSON      CLOUDY    48  33  56 S7        29.82S
GARRISON         N/A     50  37  61 SW7       29.77F
HETTINGER ARPT MOCLDY    50  28  42 W3        29.88R
$$

NDZ004>008-012>016-024-026-027-054-240300-
NORTHEAST NORTH DAKOTA

CITY           SKY/WX    TMP DP  RH WIND       PRES   REMARKS
GRAND FORKS    PTCLDY    47  38  71 S7        29.78S
GRND FRKS AFB  PTCLDY    46  39  76 S7        29.78S
DEVILS LAKE    MOCLDY    50  39  66 CALM      29.75F
$$

NDZ022-023-025-028>030-036>039-047>053-240300-
SOUTHEAST NORTH DAKOTA

CITY           SKY/WX    TMP DP  RH WIND       PRES   REMARKS
FARGO          MOCLDY    57  40  52 S12       29.82F
JAMESTOWN      MOCLDY    56  35  45 SW9       29.81S
$$




USA.gov is the U.S. government's official web portal to all federal, state and local government web resources and services.